User: anonymous   Login
Location: ??????
(38.0677°N, 22.9870°E)
Time: 09:16:00
(UTC+00:00)
Language:

ATLAS CENTAUR R/B - Orbit

View from above orbital plane
View from above orbital plane
View from above satellite
View from above satellite

Ground track
Ground track

The orbit data is extracted from the following two-line orbital elements,

1 38770U 12048N   24200.95356299  .00025450  00000-0  10802-2 0  9995
2 38770  64.6518  91.1723 0103879   9.4129 350.8908 15.18197559 10985
Epoch (UTC): 18 July 2024 22:53:07
Eccentricity: 0.0103879
inclination: 64.6518°
perigee height: 440 km
apogee height: 583 km
right ascension of ascending node: 91.1723°
argument of perigee: 9.4129°
revolutions per day: 15.18197559
mean anomaly at epoch: 350.8908°
orbit number at epoch: 1098

The dashed part of the orbit path shows where the satellite is in the earth's shadow,  

DLR